Time,TemperatureF,DewpointF,PressureIn,WindDirection,WindDirectionDegrees,WindSpeedMPH,WindSpeedGustMPH,Humidity,HourlyPrecipIn,Conditions,Clouds,dailyrainin,SoftwareType,DateUTC
2013-03-30 00:00:00,66.6,11.5,30.07,North,0,0.4,2.5,12,0.00,,,0.00,WUHU216HW,2013-03-30 06:00:00,
2013-03-30 00:05:00,66.2,11.3,30.07,North,0,0.9,2.2,12,0.00,,,0.00,WUHU216HW,2013-03-30 06:05:00,
2013-03-30 00:10:00,65.9,11.0,30.07,NNE,23,1.8,2.2,12,0.00,,,0.00,WUHU216HW,2013-03-30 06:10:00,
2013-03-30 00:15:00,65.5,12.2,30.07,NNE,23,1.1,2.5,13,0.00,,,0.00,WUHU216HW,2013-03-30 06:15:00,
2013-03-30 00:20:00,65.3,12.2,30.07,North,0,0.4,2.5,13,0.00,,,0.00,WUHU216HW,2013-03-30 06:20:00,
2013-03-30 00:25:00,65.2,12.0,30.07,North,0,1.1,1.3,13,0.00,,,0.00,WUHU216HW,2013-03-30 06:25:00,
2013-03-30 00:30:00,64.8,11.7,30.07,North,0,2.2,3.4,13,0.00,,,0.00,WUHU216HW,2013-03-30 06:30:00,
2013-03-30 00:35:00,65.0,11.9,30.07,NNE,23,2.7,3.4,13,0.00,,,0.00,WUHU216HW,2013-03-30 06:35:00,
2013-03-30 00:40:00,65.3,12.2,30.07,North,0,3.4,4.7,13,0.00,,,0.00,WUHU216HW,2013-03-30 06:40:00,
2013-03-30 00:45:00,65.9,12.6,30.07,North,0,1.8,4.7,13,0.00,,,0.00,WUHU216HW,2013-03-30 06:45:00,
2013-03-30 00:50:00,66.2,14.4,30.07,NNW,338,2.5,3.4,14,0.00,,,0.00,WUHU216HW,2013-03-30 06:50:00,
2013-03-30 00:55:00,66.8,13.3,30.07,North,0,2.5,3.8,13,0.00,,,0.00,WUHU216HW,2013-03-30 06:55:00,
2013-03-30 01:00:00,67.3,13.8,30.07,North,0,1.8,3.8,13,0.00,,,0.00,WUHU216HW,2013-03-30 07:00:00,
2013-03-30 01:05:00,67.3,13.8,30.07,North,0,2.2,3.1,13,0.00,,,0.00,WUHU216HW,2013-03-30 07:05:00,
2013-03-30 01:10:00,67.5,13.9,30.07,North,0,1.6,3.8,13,0.00,,,0.00,WUHU216HW,2013-03-30 07:10:00,
2013-03-30 01:15:00,67.7,14.0,30.07,North,0,2.2,4.3,13,0.00,,,0.00,WUHU216HW,2013-03-30 07:15:00,
2013-03-30 01:20:00,67.5,13.9,30.07,NNW,338,2.2,4.3,13,0.00,,,0.00,WUHU216HW,2013-03-30 07:20:00,
2013-03-30 01:25:00,67.1,13.6,30.06,North,0,1.3,3.4,13,0.00,,,0.00,WUHU216HW,2013-03-30 07:25:00,
2013-03-30 01:30:00,66.6,14.8,30.06,North,0,1.8,2.5,14,0.00,,,0.00,WUHU216HW,2013-03-30 07:30:00,
2013-03-30 01:35:00,66.1,15.8,30.06,NNE,23,1.6,1.8,15,0.00,,,0.00,WUHU216HW,2013-03-30 07:35:00,
2013-03-30 01:40:00,65.9,15.8,30.06,North,0,2.7,3.4,15,0.00,,,0.00,WUHU216HW,2013-03-30 07:40:00,
2013-03-30 01:45:00,65.9,15.8,30.06,North,0,2.7,4.3,15,0.00,,,0.00,WUHU216HW,2013-03-30 07:45:00,
2013-03-30 01:50:00,65.9,15.8,30.06,North,0,3.4,4.3,15,0.00,,,0.00,WUHU216HW,2013-03-30 07:50:00,
2013-03-30 01:55:00,66.1,15.8,30.06,North,0,2.5,4.3,15,0.00,,,0.00,WUHU216HW,2013-03-30 07:55:00,
2013-03-30 02:00:00,66.1,15.8,30.06,North,0,3.8,4.3,15,0.00,,,0.00,WUHU216HW,2013-03-30 08:00:00,
2013-03-30 02:05:00,66.1,15.8,30.06,NNE,23,3.1,4.7,15,0.00,,,0.00,WUHU216HW,2013-03-30 08:05:00,
2013-03-30 02:10:00,65.9,15.8,30.06,North,0,1.6,4.7,15,0.00,,,0.00,WUHU216HW,2013-03-30 08:10:00,
2013-03-30 02:15:00,66.1,15.8,30.06,NNW,338,1.3,3.4,15,0.00,,,0.00,WUHU216HW,2013-03-30 08:15:00,
2013-03-30 02:20:00,66.6,16.3,30.06,NW,315,1.3,2.9,15,0.00,,,0.00,WUHU216HW,2013-03-30 08:20:00,
2013-03-30 02:25:00,66.6,16.3,30.06,NW,315,1.1,2.5,15,0.00,,,0.00,WUHU216HW,2013-03-30 08:25:00,
2013-03-30 02:30:00,66.6,16.3,30.06,NNW,338,2.5,2.5,15,0.00,,,0.00,WUHU216HW,2013-03-30 08:30:00,
2013-03-30 02:35:00,66.6,16.3,30.06,NW,315,0.9,2.5,15,0.00,,,0.00,WUHU216HW,2013-03-30 08:35:00,
2013-03-30 02:40:00,66.2,16.0,30.06,North,0,0.4,2.5,15,0.00,,,0.00,WUHU216HW,2013-03-30 08:40:00,
2013-03-30 02:45:00,65.9,15.8,30.06,NNW,338,0.2,1.1,15,0.00,,,0.00,WUHU216HW,2013-03-30 08:45:00,
2013-03-30 02:50:00,65.3,15.3,30.06,North,0,0.0,0.9,15,0.00,,,0.00,WUHU216HW,2013-03-30 08:50:00,
2013-03-30 02:55:00,64.8,14.9,30.06,NNW,338,1.1,2.5,15,0.00,,,0.00,WUHU216HW,2013-03-30 08:55:00,
2013-03-30 03:00:00,64.4,16.2,30.06,NW,315,1.1,2.5,16,0.00,,,0.00,WUHU216HW,2013-03-30 09:00:00,
2013-03-30 03:05:00,64.3,16.0,30.06,SE,135,0.7,3.4,16,0.00,,,0.00,WUHU216HW,2013-03-30 09:05:00,
2013-03-30 03:10:00,63.7,15.7,30.06,SE,135,1.6,3.4,16,0.00,,,0.00,WUHU216HW,2013-03-30 09:10:00,
2013-03-30 03:15:00,63.2,15.2,30.06,SSE,158,0.9,2.5,16,0.00,,,0.00,WUHU216HW,2013-03-30 09:15:00,
2013-03-30 03:20:00,62.6,14.8,30.06,SSE,158,0.4,2.5,16,0.00,,,0.00,WUHU216HW,2013-03-30 09:20:00,
2013-03-30 03:25:00,62.3,14.5,30.06,SSE,158,1.1,2.5,16,0.00,,,0.00,WUHU216HW,2013-03-30 09:25:00,
2013-03-30 03:30:00,61.6,14.0,30.06,SW,225,0.0,2.5,16,0.00,,,0.00,WUHU216HW,2013-03-30 09:30:00,
2013-03-30 03:34:00,61.4,13.8,30.06,SSE,158,0.0,2.5,16,0.00,,,0.00,WUHU216HW,2013-03-30 09:34:00,
2013-03-30 03:39:00,60.8,15.0,30.06,SW,225,0.4,1.1,17,0.00,,,0.00,WUHU216HW,2013-03-30 09:39:00,
2013-03-30 03:44:00,60.3,14.5,30.06,SW,225,0.4,1.1,17,0.00,,,0.00,WUHU216HW,2013-03-30 09:44:00,
2013-03-30 03:49:00,59.9,14.1,30.06,SSW,203,0.2,1.1,17,0.00,,,0.00,WUHU216HW,2013-03-30 09:49:00,
2013-03-30 03:54:00,59.6,15.4,30.06,WSW,248,0.0,1.1,18,0.00,,,0.00,WUHU216HW,2013-03-30 09:54:00,
2013-03-30 03:59:00,59.4,15.2,30.06,WSW,248,0.0,1.1,18,0.00,,,0.00,WUHU216HW,2013-03-30 09:59:00,
2013-03-30 04:04:00,59.0,15.0,30.06,WSW,248,0.0,0.4,18,0.00,,,0.00,WUHU216HW,2013-03-30 10:04:00,
2013-03-30 04:09:00,58.7,13.1,30.06,WSW,248,0.0,0.4,17,0.00,,,0.00,WUHU216HW,2013-03-30 10:09:00,
2013-03-30 04:14:00,58.5,13.0,30.06,NW,315,0.0,0.7,17,0.00,,,0.00,WUHU216HW,2013-03-30 10:14:00,
2013-03-30 04:19:00,58.1,14.2,30.06,NW,315,0.0,0.7,18,0.00,,,0.00,WUHU216HW,2013-03-30 10:19:00,
2013-03-30 04:24:00,58.0,17.1,30.06,ENE,68,1.3,1.8,20,0.00,,,0.00,WUHU216HW,2013-03-30 10:24:00,
2013-03-30 04:29:00,58.1,14.2,30.06,NNW,338,0.9,6.3,18,0.00,,,0.00,WUHU216HW,2013-03-30 10:29:00,
2013-03-30 04:34:00,58.1,14.2,30.06,ENE,68,1.6,6.3,18,0.00,,,0.00,WUHU216HW,2013-03-30 10:34:00,
2013-03-30 04:39:00,58.1,14.2,30.06,East,90,0.7,2.7,18,0.00,,,0.00,WUHU216HW,2013-03-30 10:39:00,
2013-03-30 04:44:00,57.8,13.9,30.06,ENE,68,1.3,3.6,18,0.00,,,0.00,WUHU216HW,2013-03-30 10:44:00,
2013-03-30 04:49:00,57.6,13.8,30.06,East,90,0.9,3.6,18,0.00,,,0.00,WUHU216HW,2013-03-30 10:49:00,
2013-03-30 04:54:00,57.2,13.5,30.06,ENE,68,1.6,2.7,18,0.00,,,0.00,WUHU216HW,2013-03-30 10:54:00,
2013-03-30 04:59:00,56.9,13.1,30.06,NE,45,0.2,2.7,18,0.00,,,0.00,WUHU216HW,2013-03-30 10:59:00,
2013-03-30 05:04:00,56.5,12.9,30.06,North,0,0.0,2.0,18,0.00,,,0.00,WUHU216HW,2013-03-30 11:04:00,
2013-03-30 05:09:00,56.2,12.6,30.06,NNE,23,0.4,2.0,18,0.00,,,0.00,WUHU216HW,2013-03-30 11:09:00,
2013-03-30 05:14:00,55.6,12.3,30.06,ENE,68,0.7,2.0,18,0.00,,,0.00,WUHU216HW,2013-03-30 11:14:00,
2013-03-30 05:19:00,55.1,11.7,30.06,East,90,0.2,1.8,18,0.00,,,0.00,WUHU216HW,2013-03-30 11:19:00,
2013-03-30 05:24:00,54.7,11.4,30.06,ENE,68,0.7,1.8,18,0.00,,,0.00,WUHU216HW,2013-03-30 11:24:00,
2013-03-30 05:29:00,54.4,11.1,30.07,ESE,113,0.2,2.0,18,0.00,,,0.00,WUHU216HW,2013-03-30 11:29:00,
2013-03-30 05:34:00,54.2,11.0,30.07,WSW,248,0.4,2.2,18,0.00,,,0.00,WUHU216HW,2013-03-30 11:34:00,
2013-03-30 05:39:00,53.8,10.6,30.07,SW,225,1.1,2.2,18,0.00,,,0.00,WUHU216HW,2013-03-30 11:39:00,
2013-03-30 05:44:00,53.6,10.4,30.07,NNE,23,0.9,1.1,18,0.00,,,0.00,WUHU216HW,2013-03-30 11:44:00,
2013-03-30 05:49:00,53.5,11.9,30.07,NNE,23,0.0,1.1,19,0.00,,,0.00,WUHU216HW,2013-03-30 11:49:00,
2013-03-30 05:54:00,53.3,13.2,30.08,NW,315,0.0,0.7,20,0.00,,,0.00,WUHU216HW,2013-03-30 11:54:00,
2013-03-30 05:59:00,53.1,13.1,30.08,NW,315,0.0,0.7,20,0.00,,,0.00,WUHU216HW,2013-03-30 11:59:00,
2013-03-30 06:04:00,52.9,13.0,30.08,SW,225,0.0,0.4,20,0.00,,,0.00,WUHU216HW,2013-03-30 12:04:00,
2013-03-30 06:09:00,52.6,12.6,30.08,SW,225,0.4,0.4,20,0.00,,,0.00,WUHU216HW,2013-03-30 12:09:00,
2013-03-30 06:14:00,52.4,12.5,30.08,WNW,293,0.0,0.4,20,0.00,,,0.00,WUHU216HW,2013-03-30 12:14:00,
2013-03-30 06:19:00,52.2,13.3,30.08,WNW,293,0.0,0.4,21,0.00,,,0.00,WUHU216HW,2013-03-30 12:19:00,
2013-03-30 06:24:00,52.2,14.2,30.08,NW,315,0.0,0.7,22,0.00,,,0.00,WUHU216HW,2013-03-30 12:24:00,
2013-03-30 06:29:00,52.0,13.1,30.08,NW,315,0.0,0.7,21,0.00,,,0.00,WUHU216HW,2013-03-30 12:29:00,
2013-03-30 06:34:00,51.8,14.0,30.08,NW,315,0.0,0.0,22,0.00,,,0.00,WUHU216HW,2013-03-30 12:34:00,
2013-03-30 06:39:00,51.5,13.7,30.09,NW,315,0.0,0.0,22,0.00,,,0.00,WUHU216HW,2013-03-30 12:39:00,
2013-03-30 06:44:00,51.5,13.7,30.09,NW,315,0.0,0.0,22,0.00,,,0.00,WUHU216HW,2013-03-30 12:44:00,
2013-03-30 06:49:00,51.3,13.5,30.09,NW,315,0.0,0.0,22,0.00,,,0.00,WUHU216HW,2013-03-30 12:49:00,
2013-03-30 06:54:00,51.3,13.5,30.09,NW,315,0.0,0.0,22,0.00,,,0.00,WUHU216HW,2013-03-30 12:54:00,
2013-03-30 06:59:00,51.1,13.3,30.09,NW,315,0.0,0.0,22,0.00,,,0.00,WUHU216HW,2013-03-30 12:59:00,
2013-03-30 07:04:00,50.9,13.2,30.09,NE,45,0.4,0.4,22,0.00,,,0.00,WUHU216HW,2013-03-30 13:04:00,
2013-03-30 07:09:00,50.9,14.1,30.09,NE,45,0.0,0.4,23,0.00,,,0.00,WUHU216HW,2013-03-30 13:09:00,
2013-03-30 07:14:00,51.1,14.3,30.10,NE,45,0.0,0.4,23,0.00,,,0.00,WUHU216HW,2013-03-30 13:14:00,
2013-03-30 07:19:00,51.5,13.7,30.10,NE,45,0.0,0.0,22,0.00,,,0.00,WUHU216HW,2013-03-30 13:19:00,
2013-03-30 07:24:00,52.0,15.0,30.10,NE,45,0.0,0.0,23,0.00,,,0.00,WUHU216HW,2013-03-30 13:24:00,
2013-03-30 07:29:00,53.3,16.0,30.10,NE,45,0.0,0.0,23,0.00,,,0.00,WUHU216HW,2013-03-30 13:29:00,
2013-03-30 07:34:00,54.2,15.8,30.10,NE,45,0.4,0.7,22,0.00,,,0.00,WUHU216HW,2013-03-30 13:34:00,
2013-03-30 07:39:00,55.3,16.8,30.10,NE,45,0.0,0.7,22,0.00,,,0.00,WUHU216HW,2013-03-30 13:39:00,
2013-03-30 07:44:00,55.8,16.4,30.10,North,0,1.1,1.1,21,0.00,,,0.00,WUHU216HW,2013-03-30 13:44:00,
2013-03-30 07:49:00,55.8,17.3,30.11,North,0,0.7,1.1,22,0.00,,,0.00,WUHU216HW,2013-03-30 13:49:00,
2013-03-30 07:54:00,56.2,16.7,30.11,NNE,23,0.4,1.3,21,0.00,,,0.00,WUHU216HW,2013-03-30 13:54:00,
2013-03-30 07:59:00,56.9,16.3,30.11,NNE,23,0.0,1.3,20,0.00,,,0.00,WUHU216HW,2013-03-30 13:59:00,
2013-03-30 08:04:00,57.4,16.8,30.11,NNE,23,1.1,1.1,20,0.00,,,0.00,WUHU216HW,2013-03-30 14:04:00,
2013-03-30 08:09:00,57.6,16.8,30.11,NNE,23,0.0,1.6,20,0.00,,,0.00,WUHU216HW,2013-03-30 14:09:00,
2013-03-30 08:14:00,57.6,13.8,30.11,NNE,23,0.4,1.6,18,0.00,,,0.00,WUHU216HW,2013-03-30 14:14:00,
2013-03-30 08:19:00,58.0,14.0,30.11,ENE,68,0.0,1.6,18,0.00,,,0.00,WUHU216HW,2013-03-30 14:19:00,
2013-03-30 08:24:00,58.5,14.5,30.11,NNE,23,0.4,0.4,18,0.00,,,0.00,WUHU216HW,2013-03-30 14:24:00,
2013-03-30 08:29:00,59.0,16.5,30.11,NNE,23,0.7,1.1,19,0.00,,,0.00,WUHU216HW,2013-03-30 14:29:00,
2013-03-30 08:34:00,59.8,17.1,30.11,North,0,0.0,1.1,19,0.00,,,0.00,WUHU216HW,2013-03-30 14:34:00,
2013-03-30 08:39:00,60.1,15.8,30.11,North,0,0.4,1.1,18,0.00,,,0.00,WUHU216HW,2013-03-30 14:39:00,
2013-03-30 08:44:00,60.8,16.5,30.11,NNE,23,0.0,1.1,18,0.00,,,0.00,WUHU216HW,2013-03-30 14:44:00,
2013-03-30 08:49:00,61.6,17.1,30.11,NE,45,0.4,1.1,18,0.00,,,0.00,WUHU216HW,2013-03-30 14:49:00,
2013-03-30 08:54:00,62.3,17.6,30.11,North,0,0.7,1.1,18,0.00,,,0.00,WUHU216HW,2013-03-30 14:54:00,
2013-03-30 08:59:00,63.0,18.2,30.11,NE,45,0.4,1.1,18,0.00,,,0.00,WUHU216HW,2013-03-30 14:59:00,
2013-03-30 09:04:00,64.3,17.7,30.11,North,0,0.4,1.1,17,0.00,,,0.00,WUHU216HW,2013-03-30 15:04:00,
2013-03-30 09:09:00,64.6,16.3,30.11,North,0,0.9,1.8,16,0.00,,,0.00,WUHU216HW,2013-03-30 15:09:00,
2013-03-30 09:14:00,64.6,16.3,30.11,North,0,0.0,1.8,16,0.00,,,0.00,WUHU216HW,2013-03-30 15:14:00,
2013-03-30 09:19:00,65.5,17.0,30.11,North,0,0.2,1.1,16,0.00,,,0.00,WUHU216HW,2013-03-30 15:19:00,
2013-03-30 09:24:00,66.4,17.7,30.11,ENE,68,2.0,2.0,16,0.00,,,0.00,WUHU216HW,2013-03-30 15:24:00,
2013-03-30 09:29:00,67.3,16.9,30.11,ESE,113,1.1,2.0,15,0.00,,,0.00,WUHU216HW,2013-03-30 15:29:00,
2013-03-30 09:34:00,68.2,17.7,30.11,North,0,1.1,2.7,15,0.00,,,0.00,WUHU216HW,2013-03-30 15:34:00,
2013-03-30 09:39:00,68.8,16.5,30.11,ESE,113,1.1,2.7,14,0.00,,,0.00,WUHU216HW,2013-03-30 15:39:00,
2013-03-30 09:44:00,69.1,16.7,30.11,ESE,113,1.6,2.5,14,0.00,,,0.00,WUHU216HW,2013-03-30 15:44:00,
2013-03-30 09:49:00,69.7,15.6,30.11,ENE,68,1.6,1.8,13,0.00,,,0.00,WUHU216HW,2013-03-30 15:49:00,
2013-03-30 09:54:00,70.0,14.2,30.11,NE,45,2.5,2.9,12,0.00,,,0.00,WUHU216HW,2013-03-30 15:54:00,
2013-03-30 09:59:00,70.0,15.9,30.11,NE,45,1.8,2.9,13,0.00,,,0.00,WUHU216HW,2013-03-30 15:59:00,
2013-03-30 10:04:00,70.2,15.9,30.11,NE,45,1.1,3.1,13,0.00,,,0.00,WUHU216HW,2013-03-30 16:04:00,
2013-03-30 10:09:00,70.7,14.8,30.11,NE,45,1.8,3.1,12,0.00,,,0.00,WUHU216HW,2013-03-30 16:09:00,
2013-03-30 10:14:00,71.5,15.3,30.10,ESE,113,2.2,2.9,12,0.00,,,0.00,WUHU216HW,2013-03-30 16:14:00,
2013-03-30 10:19:00,72.4,16.1,30.10,NNW,338,0.4,2.5,12,0.00,,,0.00,WUHU216HW,2013-03-30 16:19:00,
2013-03-30 10:24:00,72.9,16.5,30.11,SSW,203,0.9,2.2,12,0.00,,,0.00,WUHU216HW,2013-03-30 16:24:00,
2013-03-30 10:29:00,73.8,17.2,30.11,NE,45,1.3,2.5,12,0.00,,,0.00,WUHU216HW,2013-03-30 16:29:00,
2013-03-30 10:34:00,74.0,17.4,30.11,NNW,338,0.0,2.5,12,0.00,,,0.00,WUHU216HW,2013-03-30 16:34:00,
2013-03-30 10:39:00,74.9,18.0,30.10,SSW,203,0.4,2.2,12,0.00,,,0.00,WUHU216HW,2013-03-30 16:39:00,
2013-03-30 10:44:00,75.8,18.7,30.11,SW,225,1.1,2.5,12,0.00,,,0.00,WUHU216HW,2013-03-30 16:44:00,
2013-03-30 10:49:00,76.0,17.2,30.11,SE,135,1.6,2.5,11,0.00,,,0.00,WUHU216HW,2013-03-30 16:49:00,
2013-03-30 10:54:00,76.5,17.7,30.11,ESE,113,0.7,2.0,11,0.00,,,0.00,WUHU216HW,2013-03-30 16:54:00,
2013-03-30 10:59:00,77.4,18.3,30.10,SSE,158,0.7,2.0,11,0.00,,,0.00,WUHU216HW,2013-03-30 16:59:00,
2013-03-30 11:04:00,78.1,18.8,30.10,WNW,293,0.7,4.0,11,0.00,,,0.00,WUHU216HW,2013-03-30 17:04:00,
2013-03-30 11:09:00,78.7,17.6,30.10,WSW,248,0.9,4.0,10,0.00,,,0.00,WUHU216HW,2013-03-30 17:09:00,
2013-03-30 11:14:00,78.8,17.6,30.10,ESE,113,1.6,4.0,10,0.00,,,0.00,WUHU216HW,2013-03-30 17:14:00,
2013-03-30 11:19:00,79.4,18.1,30.10,SSE,158,3.1,4.0,10,0.00,,,0.00,WUHU216HW,2013-03-30 17:19:00,
2013-03-30 11:24:00,79.9,18.6,30.10,SW,225,0.9,4.0,10,0.00,,,0.00,WUHU216HW,2013-03-30 17:24:00,
2013-03-30 11:29:00,80.5,18.9,30.10,East,90,1.8,4.0,10,0.00,,,0.00,WUHU216HW,2013-03-30 17:29:00,
2013-03-30 11:34:00,80.6,19.1,30.09,SSE,158,1.8,3.4,10,0.00,,,0.00,WUHU216HW,2013-03-30 17:34:00,
2013-03-30 11:39:00,81.4,19.6,30.09,East,90,3.4,3.6,8,0.00,,,0.00,WUHU216HW,2013-03-30 17:39:00,
2013-03-30 11:44:00,81.4,19.6,30.09,SSW,203,1.8,4.0,9,0.00,,,0.00,WUHU216HW,2013-03-30 17:44:00,
2013-03-30 11:49:00,81.7,20.0,30.09,NNE,23,1.8,4.0,8,0.00,,,0.00,WUHU216HW,2013-03-30 17:49:00,
2013-03-30 11:54:00,81.7,20.0,30.09,SSE,158,0.9,3.6,8,0.00,,,0.00,WUHU216HW,2013-03-30 17:54:00,
2013-03-30 11:59:00,82.4,20.5,30.09,SSE,158,0.7,3.6,8,0.00,,,0.00,WUHU216HW,2013-03-30 17:59:00,
2013-03-30 12:04:00,83.0,20.9,30.09,East,90,1.3,4.7,8,0.00,,,0.00,WUHU216HW,2013-03-30 18:04:00,
2013-03-30 12:09:00,83.7,21.4,30.08,SSE,158,2.5,4.7,8,0.00,,,0.00,WUHU216HW,2013-03-30 18:09:00,
2013-03-30 12:14:00,83.9,21.5,30.08,SE,135,2.2,4.0,8,0.00,,,0.00,WUHU216HW,2013-03-30 18:14:00,
2013-03-30 12:19:00,84.1,21.7,30.08,South,180,3.4,4.7,8,0.00,,,0.00,WUHU216HW,2013-03-30 18:19:00,
2013-03-30 12:24:00,84.2,21.8,30.08,NE,45,1.8,4.7,8,0.00,,,0.00,WUHU216HW,2013-03-30 18:24:00,
2013-03-30 12:29:00,84.2,21.8,30.08,South,180,1.1,3.4,8,0.00,,,0.00,WUHU216HW,2013-03-30 18:29:00,
2013-03-30 12:34:00,84.6,22.1,30.08,East,90,0.7,3.1,7,0.00,,,0.00,WUHU216HW,2013-03-30 18:34:00,
2013-03-30 12:39:00,84.2,21.8,30.08,North,0,1.1,4.7,8,0.00,,,0.00,WUHU216HW,2013-03-30 18:39:00,
2013-03-30 12:44:00,85.0,22.3,30.08,North,0,1.1,4.7,7,0.00,,,0.00,WUHU216HW,2013-03-30 18:44:00,
2013-03-30 12:49:00,85.1,22.5,30.07,WNW,293,2.0,2.5,7,0.00,,,0.00,WUHU216HW,2013-03-30 18:49:00,
2013-03-30 12:54:00,85.3,22.7,30.07,NE,45,2.5,3.4,8,0.00,,,0.00,WUHU216HW,2013-03-30 18:54:00,
2013-03-30 12:59:00,85.3,22.7,30.06,West,270,0.7,4.7,7,0.00,,,0.00,WUHU216HW,2013-03-30 18:59:00,
2013-03-30 13:04:00,85.5,22.8,30.06,North,0,2.5,4.7,7,0.00,,,0.00,WUHU216HW,2013-03-30 19:04:00,
2013-03-30 13:09:00,85.1,22.5,30.06,North,0,2.5,4.5,7,0.00,,,0.00,WUHU216HW,2013-03-30 19:09:00,
2013-03-30 13:14:00,84.2,21.8,30.06,NW,315,1.6,4.7,8,0.00,,,0.00,WUHU216HW,2013-03-30 19:14:00,
2013-03-30 13:19:00,83.2,21.1,30.06,WNW,293,5.4,6.3,9,0.00,,,0.00,WUHU216HW,2013-03-30 19:19:00,
2013-03-30 13:24:00,82.4,20.5,30.06,NNW,338,3.4,6.3,10,0.00,,,0.00,WUHU216HW,2013-03-30 19:24:00,
2013-03-30 13:29:00,83.0,20.9,30.06,North,0,3.1,6.3,10,0.00,,,0.00,WUHU216HW,2013-03-30 19:29:00,
2013-03-30 13:34:00,83.0,20.9,30.05,West,270,2.9,10.7,10,0.00,,,0.00,WUHU216HW,2013-03-30 19:34:00,
2013-03-30 13:39:00,83.0,20.9,30.05,NW,315,8.5,10.7,8,0.00,,,0.00,WUHU216HW,2013-03-30 19:39:00,
2013-03-30 13:44:00,83.2,21.1,30.05,NNW,338,4.0,9.2,8,0.00,,,0.00,WUHU216HW,2013-03-30 19:44:00,
2013-03-30 13:49:00,83.7,21.4,30.04,WNW,293,6.5,8.7,8,0.00,,,0.00,WUHU216HW,2013-03-30 19:49:00,
2013-03-30 13:54:00,82.8,20.8,30.04,NNW,338,7.6,9.6,8,0.00,,,0.00,WUHU216HW,2013-03-30 19:54:00,
2013-03-30 13:59:00,81.5,19.8,30.04,NNW,338,3.4,10.1,8,0.00,,,0.00,WUHU216HW,2013-03-30 19:59:00,
2013-03-30 14:04:00,81.4,19.6,30.04,NNW,338,4.7,10.1,8,0.00,,,0.00,WUHU216HW,2013-03-30 20:04:00,
2013-03-30 14:09:00,82.4,20.5,30.04,West,270,5.6,6.3,8,0.00,,,0.00,WUHU216HW,2013-03-30 20:09:00,
2013-03-30 14:14:00,83.3,21.2,30.03,SSW,203,3.4,6.9,8,0.00,,,0.00,WUHU216HW,2013-03-30 20:14:00,
2013-03-30 14:19:00,84.1,21.7,30.03,WSW,248,4.7,8.5,8,0.00,,,0.00,WUHU216HW,2013-03-30 20:19:00,
2013-03-30 14:24:00,84.1,21.7,30.03,SW,225,4.7,8.5,8,0.00,,,0.00,WUHU216HW,2013-03-30 20:24:00,
2013-03-30 14:29:00,84.2,21.8,30.02,WSW,248,4.7,7.8,8,0.00,,,0.00,WUHU216HW,2013-03-30 20:29:00,
2013-03-30 14:34:00,84.1,21.7,30.02,NW,315,1.3,8.9,8,0.00,,,0.00,WUHU216HW,2013-03-30 20:34:00,
2013-03-30 14:39:00,84.1,21.7,30.02,WNW,293,5.1,10.5,8,0.00,,,0.00,WUHU216HW,2013-03-30 20:39:00,
2013-03-30 14:44:00,83.7,21.4,30.01,NNW,338,6.9,10.5,8,0.00,,,0.00,WUHU216HW,2013-03-30 20:44:00,
2013-03-30 14:49:00,84.1,21.7,30.01,NNW,338,3.1,7.4,8,0.00,,,0.00,WUHU216HW,2013-03-30 20:49:00,
2013-03-30 14:54:00,84.1,21.7,30.01,WNW,293,5.1,7.2,8,0.00,,,0.00,WUHU216HW,2013-03-30 20:54:00,
2013-03-30 14:59:00,83.3,21.2,30.01,West,270,4.9,9.6,8,0.00,,,0.00,WUHU216HW,2013-03-30 20:59:00,
2013-03-30 15:04:00,83.2,21.1,30.01,West,270,2.5,9.6,8,0.00,,,0.00,WUHU216HW,2013-03-30 21:04:00,
2013-03-30 15:09:00,83.5,21.2,30.01,North,0,4.0,9.2,8,0.00,,,0.00,WUHU216HW,2013-03-30 21:09:00,
2013-03-30 15:14:00,83.5,21.2,30.01,WNW,293,2.0,9.2,8,0.00,,,0.00,WUHU216HW,2013-03-30 21:14:00,
2013-03-30 15:19:00,83.2,21.1,30.00,NNW,338,3.4,6.9,8,0.00,,,0.00,WUHU216HW,2013-03-30 21:19:00,
2013-03-30 15:24:00,83.2,21.1,30.00,North,0,3.4,9.2,8,0.00,,,0.00,WUHU216HW,2013-03-30 21:24:00,
2013-03-30 15:29:00,82.6,20.6,29.99,WNW,293,7.2,10.3,8,0.00,,,0.00,WUHU216HW,2013-03-30 21:29:00,
2013-03-30 15:34:00,82.4,20.5,29.99,NW,315,8.9,10.3,10,0.00,,,0.00,WUHU216HW,2013-03-30 21:34:00,
2013-03-30 15:39:00,83.0,20.9,29.99,WNW,293,4.7,8.9,8,0.00,,,0.00,WUHU216HW,2013-03-30 21:39:00,
2013-03-30 15:44:00,83.3,21.2,29.99,North,0,2.0,8.3,8,0.00,,,0.00,WUHU216HW,2013-03-30 21:44:00,
2013-03-30 15:49:00,83.9,21.5,29.99,WNW,293,5.1,6.3,8,0.00,,,0.00,WUHU216HW,2013-03-30 21:49:00,
2013-03-30 15:54:00,84.4,22.0,29.99,NW,315,5.4,9.2,8,0.00,,,0.00,WUHU216HW,2013-03-30 21:54:00,
2013-03-30 15:59:00,84.2,21.8,29.98,North,0,6.0,10.1,8,0.00,,,0.00,WUHU216HW,2013-03-30 21:59:00,
2013-03-30 16:04:00,84.4,22.0,29.98,West,270,1.6,10.1,8,0.00,,,0.00,WUHU216HW,2013-03-30 22:04:00,
2013-03-30 16:09:00,84.2,21.8,29.99,NW,315,5.1,5.8,8,0.00,,,0.00,WUHU216HW,2013-03-30 22:09:00,
2013-03-30 16:14:00,84.2,21.8,29.98,West,270,2.9,6.7,8,0.00,,,0.00,WUHU216HW,2013-03-30 22:14:00,
2013-03-30 16:19:00,84.6,22.1,29.98,North,0,2.2,6.9,8,0.00,,,0.00,WUHU216HW,2013-03-30 22:19:00,
2013-03-30 16:24:00,85.1,22.5,29.98,North,0,1.6,6.9,8,0.00,,,0.00,WUHU216HW,2013-03-30 22:24:00,
2013-03-30 16:29:00,85.3,22.7,29.98,SW,225,2.9,6.0,8,0.00,,,0.00,WUHU216HW,2013-03-30 22:29:00,
2013-03-30 16:34:00,85.5,22.8,29.98,West,270,4.5,10.5,8,0.00,,,0.00,WUHU216HW,2013-03-30 22:34:00,
2013-03-30 16:39:00,85.7,23.0,29.98,South,180,1.1,10.5,8,0.00,,,0.00,WUHU216HW,2013-03-30 22:39:00,
2013-03-30 16:44:00,85.1,22.5,29.98,NW,315,5.4,5.4,8,0.00,,,0.00,WUHU216HW,2013-03-30 22:44:00,
2013-03-30 16:49:00,83.7,21.4,29.97,WNW,293,2.0,6.5,8,0.00,,,0.00,WUHU216HW,2013-03-30 22:49:00,
2013-03-30 16:54:00,83.3,21.2,29.97,WSW,248,8.1,8.1,8,0.00,,,0.00,WUHU216HW,2013-03-30 22:54:00,
2013-03-30 16:59:00,82.8,20.8,29.97,NW,315,2.7,8.1,8,0.00,,,0.00,WUHU216HW,2013-03-30 22:59:00,
2013-03-30 17:04:00,82.4,20.5,29.97,SW,225,4.7,13.4,8,0.00,,,0.00,WUHU216HW,2013-03-30 23:04:00,
2013-03-30 17:09:00,82.4,20.5,29.97,West,270,7.8,13.4,9,0.00,,,0.00,WUHU216HW,2013-03-30 23:09:00,
2013-03-30 17:14:00,82.6,20.6,29.97,SSE,158,1.3,8.5,8,0.00,,,0.00,WUHU216HW,2013-03-30 23:14:00,
2013-03-30 17:19:00,82.4,20.5,29.97,NNW,338,5.1,8.5,9,0.00,,,0.00,WUHU216HW,2013-03-30 23:19:00,
2013-03-30 17:24:00,81.9,20.1,29.97,West,270,3.8,7.6,9,0.00,,,0.00,WUHU216HW,2013-03-30 23:24:00,
2013-03-30 17:29:00,81.5,19.8,29.97,NNW,338,3.4,6.0,10,0.00,,,0.00,WUHU216HW,2013-03-30 23:29:00,
2013-03-30 17:34:00,81.4,19.6,29.97,WNW,293,6.5,7.6,10,0.00,,,0.00,WUHU216HW,2013-03-30 23:34:00,
2013-03-30 17:39:00,81.2,19.5,29.97,WSW,248,4.0,7.6,10,0.00,,,0.00,WUHU216HW,2013-03-30 23:39:00,
2013-03-30 17:44:00,80.8,19.3,29.97,West,270,6.9,9.4,10,0.00,,,0.00,WUHU216HW,2013-03-30 23:44:00,
2013-03-30 17:49:00,80.5,18.9,29.97,NW,315,3.4,9.4,10,0.00,,,0.00,WUHU216HW,2013-03-30 23:49:00,
2013-03-30 17:54:00,80.3,18.8,29.97,North,0,10.7,11.2,10,0.00,,,0.00,WUHU216HW,2013-03-30 23:54:00,
2013-03-30 17:59:00,80.1,18.6,29.97,NW,315,4.0,11.2,10,0.00,,,0.00,WUHU216HW,2013-03-30 23:59:00,
2013-03-30 18:04:00,79.9,20.2,29.97,SW,225,11.2,13.9,11,0.00,,,0.00,WUHU216HW,2013-03-31 00:04:00,
2013-03-30 18:09:00,79.6,19.9,29.97,West,270,8.5,13.9,11,0.00,,,0.00,WUHU216HW,2013-03-31 00:09:00,
2013-03-30 18:14:00,79.6,19.9,29.98,WNW,293,5.4,11.4,11,0.00,,,0.00,WUHU216HW,2013-03-31 00:14:00,
2013-03-30 18:19:00,79.2,19.6,29.98,WSW,248,6.9,12.3,11,0.00,,,0.00,WUHU216HW,2013-03-31 00:19:00,
2013-03-30 18:24:00,79.2,19.6,29.98,WNW,293,5.4,12.3,11,0.00,,,0.00,WUHU216HW,2013-03-31 00:24:00,
2013-03-30 18:29:00,78.8,19.4,29.98,WSW,248,3.4,10.5,11,0.00,,,0.00,WUHU216HW,2013-03-31 00:29:00,
2013-03-30 18:34:00,78.7,20.9,29.98,West,270,6.5,9.8,12,0.00,,,0.00,WUHU216HW,2013-03-31 00:34:00,
2013-03-30 18:39:00,78.5,20.7,29.98,WSW,248,8.1,10.5,12,0.00,,,0.00,WUHU216HW,2013-03-31 00:39:00,
2013-03-30 18:44:00,78.3,20.6,29.98,SW,225,7.4,11.0,12,0.00,,,0.00,WUHU216HW,2013-03-31 00:44:00,
2013-03-30 18:49:00,78.1,20.4,29.98,WSW,248,4.3,11.0,12,0.00,,,0.00,WUHU216HW,2013-03-31 00:49:00,
2013-03-30 18:54:00,77.9,22.0,29.98,NNW,338,6.0,10.7,13,0.00,,,0.00,WUHU216HW,2013-03-31 00:54:00,
2013-03-30 18:59:00,77.6,21.8,29.98,WSW,248,4.0,9.2,13,0.00,,,0.00,WUHU216HW,2013-03-31 00:59:00,
2013-03-30 19:04:00,77.6,21.8,29.98,NW,315,3.8,10.7,13,0.00,,,0.00,WUHU216HW,2013-03-31 01:04:00,
2013-03-30 19:09:00,77.2,23.1,29.99,North,0,3.6,17.0,14,0.00,,,0.00,WUHU216HW,2013-03-31 01:09:00,
2013-03-30 19:14:00,77.0,24.7,29.98,NW,315,6.9,17.0,15,0.00,,,0.00,WUHU216HW,2013-03-31 01:14:00,
2013-03-30 19:19:00,76.7,24.4,29.98,NW,315,7.6,9.6,15,0.00,,,0.00,WUHU216HW,2013-03-31 01:19:00,
2013-03-30 19:24:00,76.7,21.1,29.98,WNW,293,3.1,9.6,13,0.00,,,0.00,WUHU216HW,2013-03-31 01:24:00,
2013-03-30 19:29:00,76.7,21.1,29.98,NW,315,5.4,9.2,13,0.00,,,0.00,WUHU216HW,2013-03-31 01:29:00,
2013-03-30 19:34:00,76.5,20.9,29.98,NW,315,9.4,9.4,13,0.00,,,0.00,WUHU216HW,2013-03-31 01:34:00,
2013-03-30 19:39:00,76.5,24.2,29.98,NW,315,4.9,13.9,15,0.00,,,0.00,WUHU216HW,2013-03-31 01:39:00,
2013-03-30 19:44:00,76.3,24.1,29.99,NNW,338,3.4,13.9,15,0.00,,,0.00,WUHU216HW,2013-03-31 01:44:00,
2013-03-30 19:49:00,76.3,24.1,29.99,West,270,6.3,7.4,15,0.00,,,0.00,WUHU216HW,2013-03-31 01:49:00,
2013-03-30 19:54:00,76.1,23.9,29.99,WNW,293,2.9,8.3,15,0.00,,,0.00,WUHU216HW,2013-03-31 01:54:00,
2013-03-30 19:59:00,76.0,25.5,29.99,WNW,293,5.4,13.2,16,0.00,,,0.00,WUHU216HW,2013-03-31 01:59:00,
2013-03-30 20:04:00,75.8,25.3,29.99,NNW,338,7.4,13.2,16,0.00,,,0.00,WUHU216HW,2013-03-31 02:04:00,
2013-03-30 20:09:00,75.8,25.3,29.99,North,0,6.7,9.4,16,0.00,,,0.00,WUHU216HW,2013-03-31 02:09:00,
2013-03-30 20:15:00,75.6,25.2,29.99,WNW,293,2.5,9.8,16,0.00,,,0.00,WUHU216HW,2013-03-31 02:15:00,
2013-03-30 20:20:00,75.6,25.2,29.99,WNW,293,3.4,9.8,16,0.00,,,0.00,WUHU216HW,2013-03-31 02:20:00,
2013-03-30 20:25:00,75.4,25.0,29.99,WSW,248,2.5,6.9,16,0.00,,,0.00,WUHU216HW,2013-03-31 02:25:00,
2013-03-30 20:30:00,75.2,24.8,29.99,WNW,293,1.8,6.9,16,0.00,,,0.00,WUHU216HW,2013-03-31 02:30:00,
2013-03-30 20:35:00,75.2,24.8,29.99,NNW,338,3.4,5.4,16,0.00,,,0.00,WUHU216HW,2013-03-31 02:35:00,
2013-03-30 20:40:00,75.1,24.8,29.99,West,270,1.8,5.4,16,0.00,,,0.00,WUHU216HW,2013-03-31 02:40:00,
2013-03-30 20:45:00,74.9,26.3,30.00,NW,315,5.1,5.1,17,0.00,,,0.00,WUHU216HW,2013-03-31 02:45:00,
2013-03-30 20:50:00,74.9,26.3,29.99,NNW,338,1.8,5.1,17,0.00,,,0.00,WUHU216HW,2013-03-31 02:50:00,
2013-03-30 20:55:00,74.9,26.3,29.99,NNW,338,2.0,3.8,17,0.00,,,0.00,WUHU216HW,2013-03-31 02:55:00,
2013-03-30 21:00:00,74.9,26.3,29.99,West,270,0.4,4.3,17,0.00,,,0.00,WUHU216HW,2013-03-31 03:00:00,
2013-03-30 21:05:00,74.9,26.3,29.99,NW,315,2.0,4.3,17,0.00,,,0.00,WUHU216HW,2013-03-31 03:05:00,
2013-03-30 21:10:00,74.9,26.3,30.00,NNW,338,2.5,6.7,17,0.00,,,0.00,WUHU216HW,2013-03-31 03:10:00,
2013-03-30 21:15:00,74.9,24.6,29.99,West,270,6.3,6.7,16,0.00,,,0.00,WUHU216HW,2013-03-31 03:15:00,
2013-03-30 21:20:00,74.9,26.3,29.99,NNW,338,6.9,7.2,17,0.00,,,0.00,WUHU216HW,2013-03-31 03:20:00,
2013-03-30 21:25:00,74.9,24.6,29.99,NW,315,2.9,7.2,16,0.00,,,0.00,WUHU216HW,2013-03-31 03:25:00,
2013-03-30 21:30:00,74.7,24.5,30.00,NW,315,5.4,6.9,16,0.00,,,0.00,WUHU216HW,2013-03-31 03:30:00,
2013-03-30 21:35:00,74.7,24.5,29.99,NW,315,4.9,6.9,16,0.00,,,0.00,WUHU216HW,2013-03-31 03:35:00,
2013-03-30 21:40:00,74.5,22.7,30.00,NW,315,6.3,6.5,15,0.00,,,0.00,WUHU216HW,2013-03-31 03:40:00,
2013-03-30 21:45:00,74.5,22.7,30.00,NW,315,4.7,6.5,15,0.00,,,0.00,WUHU216HW,2013-03-31 03:45:00,
2013-03-30 21:50:00,74.3,22.5,29.99,WNW,293,2.9,6.3,15,0.00,,,0.00,WUHU216HW,2013-03-31 03:50:00,
2013-03-30 21:55:00,74.2,22.4,29.99,NW,315,3.8,6.0,15,0.00,,,0.00,WUHU216HW,2013-03-31 03:55:00,
2013-03-30 22:00:00,74.0,22.3,29.99,NW,315,4.3,6.5,15,0.00,,,0.00,WUHU216HW,2013-03-31 04:00:00,
2013-03-30 22:05:00,73.8,22.1,29.99,North,0,3.4,6.5,15,0.00,,,0.00,WUHU216HW,2013-03-31 04:05:00,
2013-03-30 22:10:00,73.4,21.9,29.99,NW,315,4.0,7.2,15,0.00,,,0.00,WUHU216HW,2013-03-31 04:10:00,
2013-03-30 22:15:00,73.3,21.7,29.99,NNW,338,4.5,7.2,15,0.00,,,0.00,WUHU216HW,2013-03-31 04:15:00,
2013-03-30 22:20:00,73.1,21.6,29.99,NNW,338,2.2,5.4,15,0.00,,,0.00,WUHU216HW,2013-03-31 04:20:00,
2013-03-30 22:25:00,72.7,21.2,29.99,NNW,338,2.0,4.5,15,0.00,,,0.00,WUHU216HW,2013-03-31 04:25:00,
2013-03-30 22:30:00,72.5,21.1,29.99,NW,315,3.8,5.4,15,0.00,,,0.00,WUHU216HW,2013-03-31 04:30:00,
2013-03-30 22:35:00,72.4,21.0,29.99,NNW,338,3.1,5.4,15,0.00,,,0.00,WUHU216HW,2013-03-31 04:35:00,
2013-03-30 22:40:00,72.2,20.8,29.99,NNW,338,1.6,4.9,15,0.00,,,0.00,WUHU216HW,2013-03-31 04:40:00,
2013-03-30 22:45:00,71.8,20.5,29.99,NNW,338,1.3,5.4,15,0.00,,,0.00,WUHU216HW,2013-03-31 04:45:00,
2013-03-30 22:50:00,71.6,20.3,29.99,NW,315,1.1,5.4,15,0.00,,,0.00,WUHU216HW,2013-03-31 04:50:00,
2013-03-30 22:55:00,71.3,20.1,29.99,NNW,338,1.8,2.7,15,0.00,,,0.00,WUHU216HW,2013-03-31 04:55:00,
2013-03-30 23:00:00,70.9,19.8,29.99,NNW,338,3.4,4.0,15,0.00,,,0.00,WUHU216HW,2013-03-31 05:00:00,
2013-03-30 23:05:00,71.1,19.9,29.99,North,0,3.6,5.1,15,0.00,,,0.00,WUHU216HW,2013-03-31 05:05:00,
2013-03-30 23:10:00,71.1,16.7,29.99,NNW,338,4.7,5.4,13,0.00,,,0.00,WUHU216HW,2013-03-31 05:10:00,
2013-03-30 23:15:00,71.3,16.8,30.00,NNW,338,3.4,6.9,13,0.00,,,0.00,WUHU216HW,2013-03-31 05:15:00,
2013-03-30 23:20:00,71.3,16.8,30.00,NW,315,1.6,6.9,13,0.00,,,0.00,WUHU216HW,2013-03-31 05:20:00,
2013-03-30 23:25:00,71.3,16.8,30.00,NW,315,3.6,5.1,13,0.00,,,0.00,WUHU216HW,2013-03-31 05:25:00,
2013-03-30 23:30:00,71.3,16.8,30.00,NNW,338,3.4,4.0,13,0.00,,,0.00,WUHU216HW,2013-03-31 05:30:00,
2013-03-30 23:35:00,71.1,16.7,30.00,NNW,338,2.5,4.0,13,0.00,,,0.00,WUHU216HW,2013-03-31 05:35:00,
2013-03-30 23:40:00,71.1,16.7,30.00,NW,315,0.7,3.4,13,0.00,,,0.00,WUHU216HW,2013-03-31 05:40:00,
2013-03-30 23:45:00,70.7,16.4,30.00,NW,315,0.7,2.5,13,0.00,,,0.00,WUHU216HW,2013-03-31 05:45:00,
2013-03-30 23:50:00,70.4,16.1,30.00,NW,315,0.4,1.8,13,0.00,,,0.00,WUHU216HW,2013-03-31 05:50:00,
2013-03-30 23:55:00,69.8,15.7,30.00,North,0,0.4,1.8,13,0.00,,,0.00,WUHU216HW,2013-03-31 05:55:00,